TimeCDT,TemperatureF,Dew PointF,Humidity,Sea Level PressureIn,VisibilityMPH,Wind Direction,Wind SpeedMPH,Gust SpeedMPH,PrecipitationIn,Events,Conditions,WindDirDegrees,DateUTC
12:15 AM,43.7,42.1,94,29.81,10.0,Calm,Calm,-,N/A,,Scattered Clouds,0,2013-10-07 05:15:00
12:35 AM,42.3,41.0,95,29.81,0.2,Calm,Calm,-,N/A,Fog,Fog,0,2013-10-07 05:35:00
12:55 AM,42.1,41.0,96,29.81,2.0,Calm,Calm,-,N/A,,Scattered Clouds,0,2013-10-07 05:55:00
1:15 AM,42.1,41.0,96,29.81,7.0,Calm,Calm,-,N/A,,Scattered Clouds,0,2013-10-07 06:15:00
1:35 AM,41.9,41.0,97,29.82,2.0,Calm,Calm,-,N/A,,Clear,0,2013-10-07 06:35:00
1:55 AM,41.0,40.1,97,29.82,2.0,Calm,Calm,-,N/A,,Clear,0,2013-10-07 06:55:00
2:15 AM,41.0,40.1,97,29.82,3.0,Calm,Calm,-,N/A,,Clear,0,2013-10-07 07:15:00
2:35 AM,41.4,40.5,97,29.82,5.0,Calm,Calm,-,N/A,,Clear,0,2013-10-07 07:35:00
2:55 AM,39.9,39.2,97,29.81,0.2,Calm,Calm,-,N/A,Fog,Fog,0,2013-10-07 07:55:00
3:15 AM,41.0,40.1,97,29.81,1.2,Calm,Calm,-,N/A,,Mist,0,2013-10-07 08:15:00
3:35 AM,40.3,39.4,97,29.81,0.2,Calm,Calm,-,N/A,Fog,Fog,0,2013-10-07 08:35:00
3:55 AM,39.4,38.7,97,29.81,0.2,Calm,Calm,-,N/A,Fog,Fog,0,2013-10-07 08:55:00
4:15 AM,38.7,37.9,97,29.81,0.2,Calm,Calm,-,N/A,Fog,Fog,0,2013-10-07 09:15:00
4:35 AM,39.2,38.3,97,29.82,0.2,Calm,Calm,-,N/A,Fog,Fog,0,2013-10-07 09:35:00
4:55 AM,38.3,37.6,97,29.83,0.2,Calm,Calm,-,N/A,Fog,Fog,0,2013-10-07 09:55:00
5:15 AM,37.8,37.2,98,29.83,0.5,Calm,Calm,-,N/A,Fog,Fog,0,2013-10-07 10:15:00
5:35 AM,39.4,38.7,97,29.83,3.0,Calm,Calm,-,N/A,,Clear,0,2013-10-07 10:35:00
5:55 AM,38.3,37.6,97,29.84,1.8,Calm,Calm,-,N/A,,Mist,0,2013-10-07 10:55:00
6:15 AM,39.0,38.3,97,29.84,0.5,Calm,Calm,-,N/A,Fog,Fog,0,2013-10-07 11:15:00
6:35 AM,39.4,38.5,97,29.84,5.0,Calm,Calm,-,N/A,,Clear,0,2013-10-07 11:35:00
6:55 AM,39.4,38.7,97,29.85,2.5,Calm,Calm,-,N/A,,Clear,0,2013-10-07 11:55:00
7:15 AM,38.5,37.8,97,29.85,10.0,West,3.5,-,N/A,,Clear,260,2013-10-07 12:15:00
7:35 AM,38.5,37.8,97,29.86,10.0,Calm,Calm,-,N/A,,Clear,0,2013-10-07 12:35:00
7:55 AM,39.0,38.3,97,29.87,10.0,Calm,Calm,-,N/A,,Clear,0,2013-10-07 12:55:00
8:15 AM,41.0,40.1,97,29.87,10.0,Calm,Calm,-,N/A,,Clear,0,2013-10-07 13:15:00
8:35 AM,42.1,41.2,97,29.88,10.0,Calm,Calm,-,N/A,,Clear,0,2013-10-07 13:35:00
8:55 AM,44.1,43.2,97,29.89,10.0,Calm,Calm,-,N/A,,Clear,0,2013-10-07 13:55:00
9:15 AM,45.3,44.1,95,29.89,10.0,West,3.5,-,N/A,,Clear,270,2013-10-07 14:15:00
9:35 AM,46.6,45.5,96,29.90,10.0,NW,3.5,-,N/A,,Clear,310,2013-10-07 14:35:00
9:55 AM,48.2,47.1,96,29.91,10.0,WNW,6.9,-,N/A,,Clear,290,2013-10-07 14:55:00
10:15 AM,50.4,45.1,82,29.92,10.0,WNW,4.6,-,N/A,,Clear,300,2013-10-07 15:15:00
10:35 AM,52.0,44.8,76,29.92,10.0,WNW,5.8,-,N/A,,Clear,290,2013-10-07 15:35:00
10:55 AM,53.6,44.8,72,29.93,10.0,WNW,6.9,-,N/A,,Clear,290,2013-10-07 15:55:00
11:15 AM,55.2,45.3,69,29.93,10.0,NW,5.8,-,N/A,,Clear,320,2013-10-07 16:15:00
11:35 AM,56.8,44.4,63,29.94,10.0,NW,5.8,-,N/A,,Clear,310,2013-10-07 16:35:00
11:55 AM,57.4,43.2,59,29.94,10.0,WNW,10.4,-,N/A,,Clear,290,2013-10-07 16:55:00
12:15 PM,58.1,42.8,57,29.94,10.0,West,5.8,-,N/A,,Clear,280,2013-10-07 17:15:00
12:35 PM,58.5,41.5,53,29.95,10.0,WNW,11.5,-,N/A,,Clear,290,2013-10-07 17:35:00
12:55 PM,59.2,41.7,52,29.95,10.0,WNW,12.7,-,N/A,,Clear,290,2013-10-07 17:55:00
1:15 PM,59.0,40.5,50,29.95,10.0,West,8.1,16.1,N/A,,Clear,260,2013-10-07 18:15:00
1:35 PM,59.5,39.4,47,29.94,10.0,NNW,9.2,-,N/A,,Clear,330,2013-10-07 18:35:00
1:55 PM,60.4,39.7,46,29.94,10.0,WNW,5.8,-,N/A,,Clear,300,2013-10-07 18:55:00
2:15 PM,60.4,39.6,46,29.94,10.0,West,9.2,-,N/A,,Clear,270,2013-10-07 19:15:00
2:35 PM,60.4,37.2,42,29.95,10.0,WNW,6.9,-,N/A,,Clear,290,2013-10-07 19:35:00
2:55 PM,60.8,38.1,43,29.95,10.0,WNW,10.4,-,N/A,,Clear,300,2013-10-07 19:55:00
3:15 PM,61.0,36.1,40,29.96,10.0,NW,9.2,-,N/A,,Clear,310,2013-10-07 20:15:00
3:35 PM,61.2,37.6,42,29.96,10.0,WNW,8.1,-,N/A,,Clear,300,2013-10-07 20:35:00
3:55 PM,61.2,37.6,42,29.96,10.0,West,11.5,17.3,N/A,,Clear,280,2013-10-07 20:55:00
4:15 PM,61.3,38.5,43,29.96,10.0,WSW,6.9,16.1,N/A,,Clear,250,2013-10-07 21:15:00
4:35 PM,61.2,38.5,43,29.97,10.0,WNW,5.8,-,N/A,,Clear,290,2013-10-07 21:35:00
4:55 PM,61.0,38.5,43,29.96,10.0,West,4.6,-,N/A,,Clear,260,2013-10-07 21:55:00
5:15 PM,60.6,38.1,43,29.97,10.0,WSW,5.8,-,N/A,,Clear,250,2013-10-07 22:15:00
5:35 PM,59.2,37.6,45,29.97,10.0,West,4.6,-,N/A,,Clear,260,2013-10-07 22:35:00
5:55 PM,58.8,39.0,48,29.97,10.0,West,3.5,-,N/A,,Clear,270,2013-10-07 22:55:00
6:15 PM,58.5,39.0,48,29.97,10.0,Calm,Calm,-,N/A,,Clear,0,2013-10-07 23:15:00
6:35 PM,55.8,41.0,58,29.97,10.0,Calm,Calm,-,N/A,,Clear,0,2013-10-07 23:35:00
6:55 PM,53.4,43.0,68,29.98,10.0,Calm,Calm,-,N/A,,Clear,0,2013-10-07 23:55:00
7:15 PM,50.9,44.4,78,29.98,10.0,Calm,Calm,-,N/A,,Clear,0,2013-10-08 00:15:00
7:35 PM,50.4,42.8,75,29.99,10.0,Calm,Calm,-,N/A,,Clear,0,2013-10-08 00:35:00
7:55 PM,49.3,44.2,83,29.99,10.0,Calm,Calm,-,N/A,,Clear,0,2013-10-08 00:55:00
8:15 PM,46.9,43.9,89,30.00,10.0,Calm,Calm,-,N/A,,Clear,0,2013-10-08 01:15:00
8:35 PM,46.6,43.2,88,30.01,10.0,Calm,Calm,-,N/A,,Clear,0,2013-10-08 01:35:00
8:55 PM,44.4,42.4,93,30.01,10.0,Calm,Calm,-,N/A,,Clear,0,2013-10-08 01:55:00
9:15 PM,44.6,42.8,93,30.02,10.0,Calm,Calm,-,N/A,,Clear,0,2013-10-08 02:15:00
9:35 PM,43.7,42.3,95,30.02,10.0,Calm,Calm,-,N/A,,Clear,0,2013-10-08 02:35:00
9:55 PM,42.4,41.0,95,30.02,10.0,Calm,Calm,-,N/A,,Clear,0,2013-10-08 02:55:00
10:15 PM,43.0,41.7,95,30.02,-9999.0,Calm,Calm,-,N/A,,Unknown,0,2013-10-08 03:15:00
10:35 PM,42.1,40.8,95,30.02,0.8,Calm,Calm,-,N/A,,Mist,0,2013-10-08 03:35:00
10:55 PM,41.7,40.6,96,30.02,10.0,Calm,Calm,-,N/A,,Clear,0,2013-10-08 03:55:00
11:15 PM,41.9,40.5,95,30.02,10.0,Calm,Calm,-,N/A,,Clear,0,2013-10-08 04:15:00
11:35 PM,43.0,41.4,94,30.02,10.0,Calm,Calm,-,N/A,,Clear,0,2013-10-08 04:35:00
11:55 PM,41.9,40.5,95,30.02,10.0,SE,3.5,-,N/A,,Clear,130,2013-10-08 04:55:00